Regional Weather Roundup
Issued by NWS Newport/Morehead, NC

Current Version | Previous Version | Graphics & Text | Print | Product List | Glossary Off
Versions: 1 2 3 4 5 6 7 8 9 10 11 12 13 14 15 16 17 18 19 20 21 22 23 24 25 26 27 28 29 30 31 32 33 34 35 36 37 38 39 40 41 42 43 44 45 46 47 48 49 50
000 ASUS42 KMHX 242113 RWRMHX WEATHER ROUNDUP FOR EASTERN NORTH CAROLINA NATIONAL WEATHER SERVICE NEWPORT/MOREHEAD CITY NC 500 PM EDT SUN JUL 24 2016 NOTE: "FAIR" INDICATES FEW OR NO CLOUDS BELOW 12,000 FEET WITH NO SIGNIFICANT WEATHER AND/OR OBSTRUCTIONS TO VISIBILITY NCZ015>017-031-032-045>047-102-103-242200- NORTH COAST CITY SKY/WX TMP DP RH WIND PRES REMARKS EDENTON SUNNY 95 72 46 SW6 29.98F HX 103 ELIZABETH CITY SUNNY 93 75 55 S12 29.97F HX 104 KITTY HAWK CLEAR 97 77 52 S3 29.97S HX 112 MANTEO N/A 89 81 77 S15 29.98F HX 107 $$ NCZ045>047-081-094-103-104-242200- CENTRAL COAST CITY SKY/WX TMP DP RH WIND PRES REMARKS FRISCO SUNNY 88 79 74 SW8 30.01F HX 103 $$ NCZ095-097-098-100-101-242200- SOUTHERN COAST CITY SKY/WX TMP DP RH WIND PRES REMARKS BEAUFORT SUNNY 87 77 72 SW16 30.01F CEDAR ISLAND NOT AVBL JACKSONVILLE SUNNY 91 75 59 S10 30.00S HX 101 PINEY ISLAND NOT AVBL WILMINGTON MOSUNNY 91 75 59 S10 30.01S HX 101 $$ NCZ011>013-027>030-043-044-078>080-089-090>093-098-242200- COASTAL PLAIN CITY SKY/WX TMP DP RH WIND PRES REMARKS AHOSKIE SUNNY 91 76 62 CALM 29.98S HX 103 CLINTON SUNNY 92 78 65 CALM 29.99F HX 107 ELIZABETHTOWN PTSUNNY 94 73 49 S3 29.99F HX 103 GOLDSBORO MOSUNNY 96 71 43 VRB3 29.97F HX 103 GREENVILLE SUNNY 95 73 49 SW6 30.00F HX 105 HAVELOCK SUNNY 90 75 61 S13 30.02S HX 100 KENANSVILLE NOT AVBL KINSTON SUNNY 95 70 43 S7 30.00S HX 101 NEW BERN SUNNY 92 75 57 S12 30.01S HX 103 RICHLANDS SUNNY 93 78 61 S9 30.00S HX 108 ROCKY MOUNT SUNNY 94 75 54 SW8 29.99F HX 105 WASHINGTON SUNNY 93 74 54 W7 29.98F HX 104 WHITEVILLE PTSUNNY 81 75 82 S3 30.00F $$ AMZ130-135-150-152-154-156-158-170-250-252-270-ANZ085-086-088-633-658-670-242200- MARINE OBSERVATIONS STATION/POSITION TIME TEMP WIND PRES WAVE SWELL AIR SEA DIR/SP/G HT/PER HT/PER (UTC) (F) (DEG/KT/KT) (MB) (FT/S) (FT/S) CHESAPEAKE LIGHT NOT AVBL 64 E VA BEACH 2050 83 81 210/ 10/ 10 1015.2 2/ 9 2/ 9 DUCK 2000 84 60 120/ 7/ 9 1014.7 2 E DUCK 2011 77 N/A 1/ 9 OREGON INLET 2000 86 85 190/ 17/ 19 1015.6 13E OREGON INLT 2100 84 N/A 2/ 8 2/ 8 HATTERAS CG 2000 86 83 200/ 11/ 15 1016.2 DIAMOND BUOY 2050 85 85 230/ 14/ 16 1016.4 3/ 8 2/ 8 CAPE LOOKOUT 2000 87 200/ 11/ 14 1016.6 BEAUFORT LAB 2000 87 83 200/ 11/ 15 1016.1 30 SE NEW RVR IN 2008 85 85 210/ 12/ 14 1016.9 30 SE NEW RVR IN 2025 86 N/A 2/ 8 27 SE WRIGHTSVLE 2008 85 85 200/ 10/ 14 1017.0 5 SE WRIGHTSVLE 2008 85 85 200/ 12/ 16 1017.6 225 S CAPE HAT 2050 84 87 180/ 6/ 6 1017.9 2/ 8 2/ 8 41 SE CHARLESTON 2050 84 86 190/ 8/ 10 1016.5 2/ 9 2/ 9 $$

USA.gov is the U.S. government's official web portal to all federal, state and local government web resources and services.